World > North America > United States > Michigan

Hourly Ira, MI Regional Weather

Feedback E-mail the Weather

Quick WX

Ira, MI Weather Maps

°F °C°F °C
Ira Weather Map
UTC Time: 7/4/2022, 16:04
Your Time:

Ira, MI Regional Weather

Expires:202207041700;;672476
ASUS43 KDTX 041601
RWRMI 
MICHIGAN HOURLY REGIONAL WEATHER ROUNDUP
NATIONAL WEATHER SERVICE DETROIT/PONTIAC MI
1200 PM EDT MON JUL 04 2022

NOTE: "FAIR" INDICATES FEW OR NO CLOUDS BELOW 12,000 FEET WITH NO
SIGNIFICANT WEATHER AND/OR OBSTRUCTION TO VISIBILITY.


MIZ047>049-052>055-059>063-066>070-074>076-081>083-041700-
SOUTHEAST LOWER MICHIGAN
  
CITY           SKY/WX    TMP DP  RH WIND       PRES   REMARKS
ADRIAN         CLOUDY    84  61  45 SW9       30.14F                  
ALMA           MOSUNNY   87  54  31 SW8       30.11F                  
ANN ARBOR      PTSUNNY   84  59  42 SW7       30.14F                  
BAD AXE        CLOUDY    76  61  59 CALM      30.13S                  
CARO           CLOUDY    83  62  48 SW5       30.13S                  
DETROIT CITY   SUNNY     87  60  40 SW7       30.13F                  
DETROIT        PTSUNNY   87  59  38 SW13      30.14F                  
GROSSE ILE     MOSUNNY   80  68  66 S8        30.14F HAZE             
HILLSDALE      PTSUNNY   83  55  38 S8        30.15F                  
HOWELL         MOSUNNY   86  53  31 S9        30.14F                  

CITY           SKY/WX    TMP DP  RH WIND       PRES   REMARKS
JACKSON        PTSUNNY   85  57  38 S7        30.14F                  
LANSING        MOSUNNY   87  59  38 SW12      30.13F                  
LAPEER         MOSUNNY   84  58  40 SW5       30.13F                  
MASON          PTSUNNY   85  59  41 S6        30.14S                  
MONROE         MOSUNNY   85  62  45 SW9       30.14S                  
PONTIAC        PTSUNNY   86  55  34 SW8       30.14S                  
PORT HOPE        N/A     67  30  25 NE7       30.13R                  
PORT HURON     PTSUNNY   82  61  47 SW3       30.13S                  
TRI CITIES     MOSUNNY   83  61  47 W7        30.12F                  
MIDLAND        MOSUNNY   83  58  41 SW7       30.11S                  
TROY           SUNNY     87  45  23 W7        30.15S                  
SAGINAW HB     MOSUNNY   83  59  44 W7        30.11F                  
$$

SKY/WX - Weather  TMP - Temperature  DP - Dew Point  RH - Humidity
WIND - Wind Direction/Speed PRES - Barometric Pressure VSB - Visibility
WCI - Wind Chill Index E13G22 Wind - East Wind 13 mph/Gusts of 22 mph

Trending Headlines

Ira Radar Loop


Ira Quick Facts


National Two Day Weather Forecast


E-mail the Ira Weather Forecast

Voice your opinion or tell us about page issues...